SCP
-0 -0 -0 0 0 0 0 0 -0 -0 -0 0 0 0 0 0 0 0 0 0 0 0 0 0 0 0 0 0 0 0 0 0 0 0 0 0 0 0 0 0 0 0 0 0 0
-0 -0 -0 0 0 0 0 0 -0 -0 -0 0 0 0 0 0 0 0 0 0 0 0 0 0 0 0 0 0 0 0 0 0 0 0 0 0 0 0 0 0 0 0 0 0 0
0 0 -0 0 0 0 0 0 -0 -0 -0 -0 0 0 0 0 0 0 0 -0 -0 0 0 0 0 0 0 0 0 0 0 0 0 0 0 0 0 0 0 0 0 0 0 0 0
-0 0 0 0 0 0 0 0 0 -0 -0 -0 0 0 0 0 0 0 0 0 0 0 0 0 0 0 0 0 0 0 0 0 0 0 0 0 0 0 0 0 0 0 0 0 0
0 0 0 0 0 0 -0 -0 -0 -0 -0 -0 -0 0 0 0 0 0 0 0 0 0 0 0 0 0 0 0 0 0 0 0 0 0 0 0 0 0 0 0 0 0 0 0 0
0 0 0 0 0 0 -0 -0 -0 -0 -0 -0 -0 0 0 0 0 0 0 0 0 0 0 0 0 0 0 0 0 0 0 0 0 0 0 0 0 0 0 0 0 0 0 0 0
0 0 -0 -0 -0 -0 -0 -0 -0 -0 -0 -0 0 0 0 0 0 0 0 0 0 0 0 0 0 0 0 0 0 0 0 0 0 0 0 0 0 0 0 0 0 0 0 0 0
0 0 -0 -0 -0 -0 -0 -0 -0 -0 -0 -0 0 0 0 0 0 0 0 0 0 0 0 0 0 0 0 0 0 0 0 0 0 0 0 0 0 0 -0 -0 0 0 0 0 0
0 0 0 -0 -0 -0 -0 -0 -0 -0 -0 -0 0 0 -0 0 0 0 0 0 0 0 0 0 0 0 0 0 0 0 0 0 0 0 0 0 0 -0 -0 -0 0 0 0 0 0
-0 -0 0 -0 -0 -0 -0 0 0 -0 -0 0 0 0 0 0 0 0 -0 0 0 0 0 0 0 0 0 0 0 0 0 0 0 0 0 0 0 0 0 0 0 0 0 0 0
-0 -0 -0 -0 -0 -0 0 0 0 0 0 0 -0 -0 0 0 0 0 0 0 0 0 0 0 0 0 0 0 0 0 0 0 0 0 0 0 0 0 0 0 0 0 0 0 0
-0 -0 -0 0 0 -0 0 0 0 0 0 0 0 -0 -0 0 0 0 0 0 0 0 0 0 0 0 0 0 0 0 0 0 0 0 0 0 0 0 0 0 0 0 0 0 0
-0 -0 -0 -0 -0 0 0 0 0 0 0 0 0 -0 -0 0 0 -0 0 0 0 0 0 0 0 0 0 0 0 0 0 0 0 0 0 0 0 0 0 0 0 0 0 0 0
-0 -0 -0 -0 0 0 0 0 0 0 0 0 0 -0 0 0 0 0 0 0 0 0 0 0 0 0 0 0 0 0 0 0 0 0 0 0 -0 0 0 0 0 0 0 0 0
-0 -0 0 0 0 0 0 0 0 0 0 0 0 0 0 0 0 0 0 0 0 0 0 0 0 0 0 0 0 0 0 0 0 0 0 0 0 0 0 0 0 0 0 0 0
-0 -0 -0 0 0 0 0 0 0 0 0 0 0 0 0 0 0 0 0 0 0 0 0 0 0 0 0 0 0 0 0 0 0 0 0 0 0 0 0 0 0 0 0 0 0
-0 -0 0 0 0 0 0 0 0 0 0 0 0 0 0 0 0 0 0 0 0 0 0 0 0 0 0 0 0 0 0 0 0 0 0 0 0 0 0 0 0 0 0 0 0
-0 -0 0 0 0 0 0 0 0 0 0 0 0 0 0 0 0 0 0 0 0 0 0 0 0 0 0 0 0 0 0 0 0 0 0 0 0 0 0 0 0 0 0 0 0
-0 0 0 0 0 0 0 0 0 0 0 0 0 0 0 0 0 0 0 0 0 0 0 0 0 0 0 0 0 0 0 0 0 0 0 0 0 0 0 0 0 0 0 0 0
0 0 0 0 0 0 0 0 0 0 0 0 0 0 0 0 0 0 0 0 0 0 0 0 0 0 0 0 0 0 0 0 0 0 0 0 0 0 0 0 0 0 0 0 0
0 0 0 0 0 0 0 0 0 0 0 0 0 0 0 0 0 0 0 0 0 0 0 0 0 0 0 0 0 0 0 0 0 0 0 0 0 0 0 0 0 0 0 0 0
0 0 0 0 0 0 0 0 0 0 0 0 0 0 0 0 0 0 0 0 0 0 0 0 0 0 0 0 0 0 0 0 0 0 0 0 0 0 0 0 0 0 0 0 0
0 0 0 0 0 0 0 0 0 0 0 0 0 0 0 0 0 0 0 0 0 0 0 0 0 0 0 0 0 0 0 0 0 0 0 0 0 0 0 0 0 0 0 0 0
0 0 0 0 0 0 0 0 0 0 0 0 0 0 0 0 0 0 0 0 0 0 0 0 0 0 0 0 0 0 0 0 0 0 0 0 0 0 0 0 0 0 0 0 0
0 0 0 0 0 0 0 0 0 0 0 0 0 0 0 0 0 0 0 0 0 0 0 0 0 0 0 0 0 0 0 0 0 0 0 0 0 0 0 0 0 0 0 0 0
0 0 0 0 0 0 0 0 0 0 0 0 0 0 0 0 0 0 0 0 0 0 0 0 0 0 0 0 0 0 0 0 0 0 0 0 0 0 0 0 0 0 0 0 0
-0 0 0 0 0 0 0 0 0 0 0 0 0 0 0 0 0 0 0 0 0 0 0 0 0 0 0 0 0 0 0 0 0 0 0 0 0 0 0 0 0 0 0 0 0
Wind_Speed_500mb
33 31 29 26 24 21 21 21 20 20 21 20 18 18 19 18 23 28 33 19 14 22 22 22 20 20 17 16 13 12 8 7 11 11 8 6 12 2 32 11 20 3 18 20 23
38 32 29 24 23 20 19 21 23 21 19 18 15 16 15 18 26 20 7 9 14 28 20 15 18 20 13 13 13 8 8 16 10 7 6 3 14 24 16 38 6 14 9 19 33
42 36 30 25 19 19 21 23 24 22 17 15 13 12 11 16 6 5 5 8 18 25 20 16 18 17 8 10 11 11 11 9 9 19 19 9 16 24 7 14 21 26 25 19 42
42 38 31 24 20 20 22 23 22 21 17 12 10 8 10 8 6 3 5 14 21 22 21 16 16 14 8 9 11 6 13 14 11 22 21 11 28 6 17 41 54 48 42 24 45
44 39 31 24 22 23 23 22 22 20 16 8 3 5 9 7 2 3 7 13 18 22 23 18 22 11 10 7 10 8 9 15 30 31 29 37 30 24 25 45 41 39 45 37 38
46 41 34 24 21 22 22 21 20 20 16 10 3 3 5 6 5 3 8 19 21 24 24 18 11 8 5 4 7 6 4 13 15 22 16 12 24 9 8 32 41 37 38 40 41
54 46 36 28 21 20 21 20 20 19 16 10 8 9 11 11 9 7 13 12 15 12 8 4 3 6 8 4 3 2 5 8 10 9 12 8 16 9 19 23 29 33 35 39 38
61 53 42 32 24 20 19 22 24 22 16 11 7 9 10 16 18 14 15 11 4 3 3 4 5 4 5 5 9 5 9 3 9 5 12 14 18 13 8 10 21 29 34 38 33
61 61 48 36 28 20 19 24 29 17 12 10 6 6 7 18 21 17 18 13 6 6 13 7 3 2 5 9 9 12 5 4 13 7 7 10 10 10 21 17 19 26 31 33 38
63 70 58 38 29 21 20 29 17 9 8 6 11 8 7 6 5 19 26 15 10 9 6 7 4 7 7 9 7 5 2 5 9 7 5 14 12 17 33 26 31 31 32 34 37
61 68 71 41 28 19 18 19 11 6 14 18 23 18 25 11 5 20 25 18 15 5 7 5 7 10 18 13 10 5 8 10 13 21 6 16 12 18 28 32 36 33 33 35 38
65 68 70 49 25 18 17 9 11 18 20 31 36 40 39 23 9 19 27 17 12 11 6 10 10 18 10 8 10 10 9 15 17 25 13 17 15 16 13 15 21 31 41 32 24
69 72 67 59 22 18 12 6 18 17 8 18 13 20 29 21 15 24 22 26 8 9 10 12 14 10 11 6 8 8 9 10 17 8 5 4 9 11 11 13 31 30 27 30 38
67 68 64 58 18 12 7 10 18 11 6 9 7 8 23 13 10 42 37 21 4 16 16 11 11 13 9 10 12 8 15 15 11 2 9 7 20 7 10 13 12 29 37 53 51
70 67 60 52 28 15 9 9 16 4 7 4 4 8 25 19 4 9 42 37 16 10 12 16 5 6 8 19 11 19 9 13 10 9 4 6 2 14 5 11 20 17 34 36 45
79 69 55 48 32 14 11 10 2 8 9 1 9 9 10 9 4 5 10 17 11 12 7 17 3 11 14 4 14 6 3 9 8 5 6 14 12 9 11 17 11 11 39 56 50
75 53 38 37 13 14 6 0 8 5 10 11 8 1 6 7 7 5 5 7 11 2 10 6 20 11 9 9 10 7 10 8 8 5 20 15 11 22 13 18 16 20 48 57 57
72 36 22 15 10 19 4 7 6 5 5 6 6 12 4 3 0 4 5 4 10 9 4 9 21 13 7 17 24 14 16 10 13 9 16 6 12 11 15 16 24 26 35 39 45
60 26 10 3 13 14 8 3 9 4 6 8 13 3 1 4 5 8 2 6 5 7 9 7 11 9 10 11 19 7 8 8 4 4 5 9 13 12 11 8 12 19 28 16 22
52 20 34 12 16 8 7 8 5 3 8 4 2 8 6 10 9 6 2 1 8 2 4 7 7 9 12 3 1 7 11 3 2 8 13 8 7 10 12 7 10 15 26 30 28
32 12 26 8 4 2 4 8 6 7 13 3 6 9 9 8 5 6 7 6 7 7 9 3 5 12 2 8 9 2 4 8 6 4 8 16 10 10 7 7 12 16 28 28 32
21 6 31 0 7 5 3 11 17 12 22 11 8 7 7 15 10 5 6 8 22 11 7 9 8 10 21 7 6 3 5 7 8 7 8 5 21 6 8 9 14 27 38 39 34
15 12 25 7 5 6 13 10 9 15 10 9 9 12 10 6 8 7 5 21 18 10 3 8 1 4 11 1 2 5 4 7 8 6 12 10 14 4 14 14 36 33 41 34 36
14 8 14 21 14 7 9 11 14 28 5 14 11 3 11 6 7 14 20 11 3 12 24 8 5 9 12 6 4 12 10 13 12 7 9 14 33 25 29 25 30 45 30 27 22
17 4 6 7 7 4 4 3 9 10 17 9 3 5 6 8 15 20 22 12 24 40 22 12 12 16 27 31 26 27 27 20 16 18 16 25 18 28 12 17 18 21 24 24 27
10 11 11 13 18 7 3 5 9 15 5 10 7 14 14 11 23 30 21 16 17 10 7 7 8 6 14 21 20 25 20 19 25 26 20 21 29 5 16 23 33 34 32 15 28
16 11 5 9 9 4 6 7 6 21 18 27 16 24 22 24 23 45 47 45 26 10 11 9 7 3 8 3 7 11 12 13 8 6 6 8 9 6 10 13 25 37 35 18 31
Wind_Direction_500mb
343 336 331 330 326 330 326 323 320 315 309 301 295 282 269 277 280 275 272 259 235 208 179 175 186 187 183 178 163 144 80 194 214 167 235 345 16 309 331 319 328 255 266 217 228
352 345 336 334 334 338 341 335 326 318 314 309 294 278 277 293 294 286 266 232 201 185 180 166 164 168 161 166 169 118 143 213 217 203 260 306 310 319 337 323 302 8 320 235 209
1 358 350 343 348 345 343 340 332 322 317 309 299 288 290 315 312 56 4 188 174 182 182 169 159 161 132 148 177 162 184 211 250 248 275 285 289 292 258 293 281 313 325 234 200
5 2 359 354 354 353 349 347 347 338 325 324 318 286 302 315 132 350 3 174 187 189 191 184 169 148 128 170 183 143 234 209 268 258 279 271 286 281 253 272 291 294 289 278 221
2 360 358 354 348 348 350 353 357 360 348 336 306 275 315 285 328 0 29 170 181 183 188 174 160 145 161 191 164 181 239 239 259 273 272 276 267 258 263 285 297 290 282 258 238
359 355 352 347 342 340 343 347 354 359 2 349 293 264 303 286 128 111 126 101 123 135 140 153 164 178 179 199 171 220 240 283 286 272 257 239 265 253 306 300 295 300 288 275 253
360 350 347 340 337 335 331 335 339 340 345 339 309 287 259 200 169 156 155 135 118 114 142 172 159 160 153 136 194 274 321 332 248 249 243 246 293 202 282 284 287 294 296 285 261
2 356 344 338 330 329 323 324 325 318 317 316 304 304 256 186 185 168 172 189 189 203 207 332 212 225 171 142 32 75 44 360 280 224 251 166 273 286 311 321 298 292 287 292 280
10 6 352 335 326 323 319 321 319 301 287 296 273 297 257 200 215 199 194 175 142 327 282 257 319 138 68 78 15 8 229 226 309 250 271 175 278 262 321 336 303 304 293 286 287
9 9 358 338 325 315 315 325 325 305 252 284 252 295 217 153 284 211 193 203 247 306 151 193 134 79 45 77 220 224 260 259 252 274 199 288 251 286 303 315 306 305 301 299 293
2 1 1 344 322 311 311 337 343 295 245 242 273 260 291 294 235 203 206 223 227 239 155 44 86 207 218 198 178 191 207 242 255 260 229 253 253 264 285 306 305 305 310 311 311
354 352 355 348 318 299 306 356 340 307 297 283 259 254 254 260 303 206 210 190 163 203 102 28 236 230 195 185 207 215 247 261 276 261 168 260 258 253 244 248 253 293 304 313 321
346 348 347 350 320 282 276 328 338 335 270 292 247 232 235 230 226 233 203 202 163 162 180 170 235 116 176 233 201 209 189 237 226 307 264 326 293 250 255 259 282 284 277 288 301
341 343 343 348 333 262 239 308 330 320 8 267 245 216 173 160 248 232 210 188 174 205 154 226 258 204 185 225 166 251 220 242 253 168 242 125 282 238 240 255 269 273 288 296 299
330 333 333 339 315 266 217 300 316 310 343 167 169 157 170 174 319 201 209 205 198 181 124 240 199 162 188 223 144 244 219 232 253 232 57 282 291 277 229 273 269 254 272 292 299
321 322 319 330 316 244 226 310 211 41 257 328 132 162 135 225 268 94 156 195 231 173 229 241 245 183 213 257 172 225 185 45 52 89 238 231 209 191 223 240 275 268 277 290 298
324 319 306 312 291 184 221 81 49 164 316 354 5 357 211 208 215 195 182 179 196 140 247 299 251 244 178 291 283 127 81 311 312 300 264 222 238 252 234 247 227 269 300 303 299
333 327 302 293 215 199 220 62 183 266 338 3 326 302 257 58 293 133 141 266 243 200 163 199 278 178 188 194 228 185 160 181 245 242 273 29 242 247 217 250 308 321 316 311 297
347 358 17 105 167 171 171 101 213 210 306 320 309 260 305 78 45 28 290 246 271 164 179 196 265 257 224 195 150 193 177 199 175 44 340 225 295 305 279 12 354 345 8 328 334
354 34 23 82 131 154 85 234 246 277 312 342 241 46 26 1 3 359 183 276 28 354 160 252 279 253 280 151 12 171 149 121 17 294 264 239 264 242 267 255 315 342 343 352 341
8 60 21 127 135 340 169 237 289 28 4 330 28 26 36 22 338 283 259 92 10 326 291 200 63 290 225 223 220 166 178 67 96 167 261 289 253 219 249 234 285 301 319 315 320
11 57 6 165 31 24 20 325 318 359 22 34 81 81 49 8 312 276 309 24 17 350 347 347 159 226 258 323 304 87 131 150 164 213 231 240 264 309 282 251 270 303 314 317 313
12 344 21 43 50 11 323 322 349 7 37 9 98 3 58 233 270 271 291 310 23 337 345 59 214 284 306 202 66 83 110 110 96 123 216 235 274 322 303 303 303 303 303 322 321
5 14 6 50 57 61 11 336 344 352 60 7 344 343 356 286 284 272 274 277 319 325 318 117 290 216 242 265 223 272 225 206 173 206 249 233 281 293 291 304 295 287 293 320 341
21 55 30 333 16 18 106 250 296 308 337 29 303 222 320 279 298 258 269 296 308 290 267 140 230 225 237 248 263 257 254 246 208 231 234 276 266 280 323 314 320 333 329 333 355
30 5 355 305 309 306 182 253 271 269 284 282 221 315 286 248 252 278 286 275 250 253 188 172 239 220 264 256 258 256 253 255 255 255 248 263 274 99 305 351 340 322 336 339 348
42 20 352 313 328 280 219 237 297 335 274 263 327 322 295 271 306 288 270 256 244 221 195 177 167 148 257 337 320 273 239 223 232 209 180 225 238 290 306 311 295 308 318 302 329
Wind_Speed_850mb
33 31 29 26 24 21 21 21 20 20 21 20 18 18 19 18 23 28 33 19 14 22 22 22 20 20 17 16 13 12 8 7 11 11 8 6 12 2 32 11 20 3 18 20 23
38 32 29 24 23 20 19 21 23 21 19 18 15 16 15 18 26 20 7 9 14 28 20 15 18 20 13 13 13 8 8 16 10 7 6 3 14 24 16 38 6 14 9 19 33
42 36 30 25 19 19 21 23 24 22 17 15 13 12 11 16 6 5 5 8 18 25 20 16 18 17 8 10 11 11 11 9 9 19 19 9 16 24 7 14 21 26 25 19 42
42 38 31 24 20 20 22 23 22 21 17 12 10 8 10 8 6 3 5 14 21 22 21 16 16 14 8 9 11 6 13 14 11 22 21 11 28 6 17 41 54 48 42 24 45
44 39 31 24 22 23 23 22 22 20 16 8 3 5 9 7 2 3 7 13 18 22 23 18 22 11 10 7 10 8 9 15 30 31 29 37 30 24 25 45 41 39 45 37 38
46 41 34 24 21 22 22 21 20 20 16 10 3 3 5 6 5 3 8 19 21 24 24 18 11 8 5 4 7 6 4 13 15 22 16 12 24 9 8 32 41 37 38 40 41
54 46 36 28 21 20 21 20 20 19 16 10 8 9 11 11 9 7 13 12 15 12 8 4 3 6 8 4 3 2 5 8 10 9 12 8 16 9 19 23 29 33 35 39 38
61 53 42 32 24 20 19 22 24 22 16 11 7 9 10 16 18 14 15 11 4 3 3 4 5 4 5 5 9 5 9 3 9 5 12 14 18 13 8 10 21 29 34 38 33
61 61 48 36 28 20 19 24 29 17 12 10 6 6 7 18 21 17 18 13 6 6 13 7 3 2 5 9 9 12 5 4 13 7 7 10 10 10 21 17 19 26 31 33 38
63 70 58 38 29 21 20 29 17 9 8 6 11 8 7 6 5 19 26 15 10 9 6 7 4 7 7 9 7 5 2 5 9 7 5 14 12 17 33 26 31 31 32 34 37
61 68 71 41 28 19 18 19 11 6 14 18 23 18 25 11 5 20 25 18 15 5 7 5 7 10 18 13 10 5 8 10 13 21 6 16 12 18 28 32 36 33 33 35 38
65 68 70 49 25 18 17 9 11 18 20 31 36 40 39 23 9 19 27 17 12 11 6 10 10 18 10 8 10 10 9 15 17 25 13 17 15 16 13 15 21 31 41 32 24
69 72 67 59 22 18 12 6 18 17 8 18 13 20 29 21 15 24 22 26 8 9 10 12 14 10 11 6 8 8 9 10 17 8 5 4 9 11 11 13 31 30 27 30 38
67 68 64 58 18 12 7 10 18 11 6 9 7 8 23 13 10 42 37 21 4 16 16 11 11 13 9 10 12 8 15 15 11 2 9 7 20 7 10 13 12 29 37 53 51
70 67 60 52 28 15 9 9 16 4 7 4 4 8 25 19 4 9 42 37 16 10 12 16 5 6 8 19 11 19 9 13 10 9 4 6 2 14 5 11 20 17 34 36 45
79 69 55 48 32 14 11 10 2 8 9 1 9 9 10 9 4 5 10 17 11 12 7 17 3 11 14 4 14 6 3 9 8 5 6 14 12 9 11 17 11 11 39 56 50
75 53 38 37 13 14 6 0 8 5 10 11 8 1 6 7 7 5 5 7 11 2 10 6 20 11 9 9 10 7 10 8 8 5 20 15 11 22 13 18 16 20 48 57 57
72 36 22 15 10 19 4 7 6 5 5 6 6 12 4 3 0 4 5 4 10 9 4 9 21 13 7 17 24 14 16 10 13 9 16 6 12 11 15 16 24 26 35 39 45
60 26 10 3 13 14 8 3 9 4 6 8 13 3 1 4 5 8 2 6 5 7 9 7 11 9 10 11 19 7 8 8 4 4 5 9 13 12 11 8 12 19 28 16 22
52 20 34 12 16 8 7 8 5 3 8 4 2 8 6 10 9 6 2 1 8 2 4 7 7 9 12 3 1 7 11 3 2 8 13 8 7 10 12 7 10 15 26 30 28
32 12 26 8 4 2 4 8 6 7 13 3 6 9 9 8 5 6 7 6 7 7 9 3 5 12 2 8 9 2 4 8 6 4 8 16 10 10 7 7 12 16 28 28 32
21 6 31 0 7 5 3 11 17 12 22 11 8 7 7 15 10 5 6 8 22 11 7 9 8 10 21 7 6 3 5 7 8 7 8 5 21 6 8 9 14 27 38 39 34
15 12 25 7 5 6 13 10 9 15 10 9 9 12 10 6 8 7 5 21 18 10 3 8 1 4 11 1 2 5 4 7 8 6 12 10 14 4 14 14 36 33 41 34 36
14 8 14 21 14 7 9 11 14 28 5 14 11 3 11 6 7 14 20 11 3 12 24 8 5 9 12 6 4 12 10 13 12 7 9 14 33 25 29 25 30 45 30 27 22
17 4 6 7 7 4 4 3 9 10 17 9 3 5 6 8 15 20 22 12 24 40 22 12 12 16 27 31 26 27 27 20 16 18 16 25 18 28 12 17 18 21 24 24 27
10 11 11 13 18 7 3 5 9 15 5 10 7 14 14 11 23 30 21 16 17 10 7 7 8 6 14 21 20 25 20 19 25 26 20 21 29 5 16 23 33 34 32 15 28
16 11 5 9 9 4 6 7 6 21 18 27 16 24 22 24 23 45 47 45 26 10 11 9 7 3 8 3 7 11 12 13 8 6 6 8 9 6 10 13 25 37 35 18 31
Wind_Direction_850mb
343 336 331 330 326 330 326 323 320 315 309 301 295 282 269 277 280 275 272 259 235 208 179 175 186 187 183 178 163 144 80 194 214 167 235 345 16 309 331 319 328 255 266 217 228
352 345 336 334 334 338 341 335 326 318 314 309 294 278 277 293 294 286 266 232 201 185 180 166 164 168 161 166 169 118 143 213 217 203 260 306 310 319 337 323 302 8 320 235 209
1 358 350 343 348 345 343 340 332 322 317 309 299 288 290 315 312 56 4 188 174 182 182 169 159 161 132 148 177 162 184 211 250 248 275 285 289 292 258 293 281 313 325 234 200
5 2 359 354 354 353 349 347 347 338 325 324 318 286 302 315 132 350 3 174 187 189 191 184 169 148 128 170 183 143 234 209 268 258 279 271 286 281 253 272 291 294 289 278 221
2 360 358 354 348 348 350 353 357 360 348 336 306 275 315 285 328 0 29 170 181 183 188 174 160 145 161 191 164 181 239 239 259 273 272 276 267 258 263 285 297 290 282 258 238
359 355 352 347 342 340 343 347 354 359 2 349 293 264 303 286 128 111 126 101 123 135 140 153 164 178 179 199 171 220 240 283 286 272 257 239 265 253 306 300 295 300 288 275 253
360 350 347 340 337 335 331 335 339 340 345 339 309 287 259 200 169 156 155 135 118 114 142 172 159 160 153 136 194 274 321 332 248 249 243 246 293 202 282 284 287 294 296 285 261
2 356 344 338 330 329 323 324 325 318 317 316 304 304 256 186 185 168 172 189 189 203 207 332 212 225 171 142 32 75 44 360 280 224 251 166 273 286 311 321 298 292 287 292 280
10 6 352 335 326 323 319 321 319 301 287 296 273 297 257 200 215 199 194 175 142 327 282 257 319 138 68 78 15 8 229 226 309 250 271 175 278 262 321 336 303 304 293 286 287
9 9 358 338 325 315 315 325 325 305 252 284 252 295 217 153 284 211 193 203 247 306 151 193 134 79 45 77 220 224 260 259 252 274 199 288 251 286 303 315 306 305 301 299 293
2 1 1 344 322 311 311 337 343 295 245 242 273 260 291 294 235 203 206 223 227 239 155 44 86 207 218 198 178 191 207 242 255 260 229 253 253 264 285 306 305 305 310 311 311
354 352 355 348 318 299 306 356 340 307 297 283 259 254 254 260 303 206 210 190 163 203 102 28 236 230 195 185 207 215 247 261 276 261 168 260 258 253 244 248 253 293 304 313 321
346 348 347 350 320 282 276 328 338 335 270 292 247 232 235 230 226 233 203 202 163 162 180 170 235 116 176 233 201 209 189 237 226 307 264 326 293 250 255 259 282 284 277 288 301
341 343 343 348 333 262 239 308 330 320 8 267 245 216 173 160 248 232 210 188 174 205 154 226 258 204 185 225 166 251 220 242 253 168 242 125 282 238 240 255 269 273 288 296 299
330 333 333 339 315 266 217 300 316 310 343 167 169 157 170 174 319 201 209 205 198 181 124 240 199 162 188 223 144 244 219 232 253 232 57 282 291 277 229 273 269 254 272 292 299
321 322 319 330 316 244 226 310 211 41 257 328 132 162 135 225 268 94 156 195 231 173 229 241 245 183 213 257 172 225 185 45 52 89 238 231 209 191 223 240 275 268 277 290 298
324 319 306 312 291 184 221 81 49 164 316 354 5 357 211 208 215 195 182 179 196 140 247 299 251 244 178 291 283 127 81 311 312 300 264 222 238 252 234 247 227 269 300 303 299
333 327 302 293 215 199 220 62 183 266 338 3 326 302 257 58 293 133 141 266 243 200 163 199 278 178 188 194 228 185 160 181 245 242 273 29 242 247 217 250 308 321 316 311 297
347 358 17 105 167 171 171 101 213 210 306 320 309 260 305 78 45 28 290 246 271 164 179 196 265 257 224 195 150 193 177 199 175 44 340 225 295 305 279 12 354 345 8 328 334
354 34 23 82 131 154 85 234 246 277 312 342 241 46 26 1 3 359 183 276 28 354 160 252 279 253 280 151 12 171 149 121 17 294 264 239 264 242 267 255 315 342 343 352 341
8 60 21 127 135 340 169 237 289 28 4 330 28 26 36 22 338 283 259 92 10 326 291 200 63 290 225 223 220 166 178 67 96 167 261 289 253 219 249 234 285 301 319 315 320
11 57 6 165 31 24 20 325 318 359 22 34 81 81 49 8 312 276 309 24 17 350 347 347 159 226 258 323 304 87 131 150 164 213 231 240 264 309 282 251 270 303 314 317 313
12 344 21 43 50 11 323 322 349 7 37 9 98 3 58 233 270 271 291 310 23 337 345 59 214 284 306 202 66 83 110 110 96 123 216 235 274 322 303 303 303 303 303 322 321
5 14 6 50 57 61 11 336 344 352 60 7 344 343 356 286 284 272 274 277 319 325 318 117 290 216 242 265 223 272 225 206 173 206 249 233 281 293 291 304 295 287 293 320 341
21 55 30 333 16 18 106 250 296 308 337 29 303 222 320 279 298 258 269 296 308 290 267 140 230 225 237 248 263 257 254 246 208 231 234 276 266 280 323 314 320 333 329 333 355
30 5 355 305 309 306 182 253 271 269 284 282 221 315 286 248 252 278 286 275 250 253 188 172 239 220 264 256 258 256 253 255 255 255 248 263 274 99 305 351 340 322 336 339 348
42 20 352 313 328 280 219 237 297 335 274 263 327 322 295 271 306 288 270 256 244 221 195 177 167 148 257 337 320 273 239 223 232 209 180 225 238 290 306 311 295 308 318 302 329